Cairo, Egypt

2:23 PM EET on June 24, 2017 (GMT +0200)
Cairo International Airport

Weather History for HECA - April, 2014

Change the Weather History Date:

Friday, April 4, 2014

  Actual Average Record
Temperature  
Mean Temperature 68 °F -  
Max Temperature 78 °F 81 °F 105 °F (2003)
Min Temperature 57 °F 59 °F 50 °F (2005)
Cooling Degree Days 2    
Growing Degree Days 18 (Base 50)    
Moisture  
Dew Point 44 °F    
Average Humidity 44    
Maximum Humidity 82    
Minimum Humidity 10    
Precipitation  
Precipitation 0.00 in 0.00 in - ()
Sea Level Pressure  
Sea Level Pressure 30.09 in    
Wind  
Wind Speed 5 mph ()    
Max Wind Speed 13 mph    
Max Gust Speed -    
Visibility 4.7 miles    
Events      
Averages and records for this station are not official NWS values.
T = Trace of Precipitation, MM = Missing Value Source: Averaged Metar Reports

Daily Weather History Graph

Daily Weather History Graph

Search for Another Location

Airport or City:

Trip Planner

Search our weather history database for the weather conditions in past years. The results will help you decide how hot, cold, wet, or windy it might be!

Date:

Astronomy

Apr. 04, 2014 Rise Set
Actual Time 5:40 AM EET 6:14 PM EET
Civil Twilight 5:16 AM EET 6:39 PM EET
Nautical Twilight 4:47 AM EET 7:07 PM EET
Astronomical Twilight 4:19 AM EET 7:36 PM EET
Moon 8:55 AM EET (4/4) 10:53 PM EET (4/4)
Length of Visible Light 13h 22m
Length of Day
12h 34m
Waxing Crescent, 23% of the Moon is Illuminated
Apr 4
Waxing Crescent
Apr 7
First Quarter
Apr 15
Full
Apr 22
Last Quarter
Apr 29
New

Hourly Weather History & Observations

Time (EET) Temp. Dew Point Humidity Pressure Visibility Wind Dir Wind Speed Gust Speed Precip Events Conditions
12:00 AM 60.8 °F 53.6 °F 77% 30.09 in - NE 4.6 mph - N/A   Clear
12:30 AM 60.8 °F 53.6 °F 77% 30.09 in - NE 4.6 mph - N/A   Clear
1:00 AM 60.8 °F 51.8 °F 72% 30.09 in - NE 5.8 mph - N/A   Clear
1:30 AM 60.8 °F 53.6 °F 77% 30.09 in - NNE 4.6 mph - N/A   Clear
2:00 AM 60 °F 53 °F 69% 30.09 in 6 mi North 5.8 mph - -  
2:00 AM 60.8 °F 53.6 °F 77% 30.06 in - North 5.8 mph - N/A   Clear
2:30 AM 59.0 °F 53.6 °F 82% 30.06 in - North 5.8 mph - N/A   Clear
3:30 AM 59.0 °F 53.6 °F 82% 30.06 in - North 5.8 mph - N/A   Clear
4:30 AM 59.0 °F 53.6 °F 82% 30.09 in 1.9 mi Calm Calm - N/A   Mist
6:00 AM 57.2 °F 51.8 °F 82% 30.09 in 1.9 mi Calm Calm - N/A   Mist
6:30 AM 57.2 °F 51.8 °F 82% 30.09 in 1.9 mi Calm Calm - N/A   Mist
7:00 AM 59.0 °F 51.8 °F 77% 30.12 in 3.7 mi Calm Calm - N/A   Unknown
8:00 AM 61 °F 51 °F 61% 30.19 in 6 mi Calm Calm - -  
8:00 AM 60.8 °F 51.8 °F 72% 30.12 in - Calm Calm - N/A   Clear
9:00 AM 64.4 °F 50.0 °F 59% 30.12 in - Calm Calm - N/A   Clear
9:30 AM 64.4 °F 50.0 °F 59% 30.12 in - Calm Calm - N/A   Clear
10:00 AM 68.0 °F 44.6 °F 43% 30.12 in - Calm Calm - N/A   Clear
10:30 AM 69.8 °F 42.8 °F 38% 30.12 in - NNE 4.6 mph - N/A   Clear
11:00 AM 69 °F 42 °F 26% 30.12 in 6 mi NNE 4.6 mph - -  
11:00 AM 69.8 °F 41.0 °F 35% 30.12 in - NNE 4.6 mph - N/A   Clear
11:30 AM 73.4 °F 41.0 °F 31% 30.12 in - NNE 4.6 mph - N/A   Clear
12:00 PM 73.4 °F 35.6 °F 25% 30.09 in - NNE 4.6 mph - N/A   Clear
12:30 PM 73.4 °F 35.6 °F 25% 30.09 in - NNE 4.6 mph - N/A   Clear
1:00 PM 75.2 °F 35.6 °F 24% 30.09 in - North 5.8 mph - N/A   Clear
1:30 PM 77.0 °F 35.6 °F 22% 30.09 in - North 5.8 mph - N/A   Clear
2:00 PM 77 °F 33 °F 11% 30.08 in 6 mi North 6.9 mph - -  
2:00 PM 77.0 °F 33.8 °F 21% 30.06 in - North 6.9 mph - N/A   Clear
2:30 PM 77.0 °F 33.8 °F 21% 30.06 in - NNE 2.3 mph - N/A   Clear
3:00 PM 77.0 °F 32.0 °F 19% 30.06 in - NNE 2.3 mph - N/A   Clear
3:30 PM 78.8 °F 32.0 °F 18% 30.06 in - NNE 2.3 mph - N/A   Clear
4:00 PM 77.0 °F 32.0 °F 19% 30.06 in - North 4.6 mph - N/A   Clear
4:30 PM 77.0 °F 39.2 °F 26% 30.06 in - North 4.6 mph - N/A   Clear
5:00 PM 78 °F 32 °F 10% 30.06 in 6 mi NE 2.3 mph - -  
5:00 PM 77.0 °F 32.0 °F 19% 30.06 in - NE 2.3 mph - N/A   Clear
5:30 PM 77.0 °F 41.0 °F 28% 30.06 in - NW 11.5 mph - N/A   Clear
6:00 PM 75.2 °F 37.4 °F 25% 30.06 in - NNW 9.2 mph - N/A   Clear
6:30 PM 75.2 °F 37.4 °F 25% 30.06 in - NNW 10.4 mph - N/A   Clear
7:00 PM 73.4 °F 41.0 °F 31% 30.06 in - NNW 10.4 mph - N/A   Clear
7:30 PM 73.4 °F 41.0 °F 31% 30.06 in - NNW 10.4 mph - N/A   Clear
8:00 PM 73 °F 41 °F 21% 30.09 in 6 mi North 8.1 mph - -  
8:00 PM 73.4 °F 41.0 °F 31% 30.09 in - North 8.1 mph - N/A   Clear
8:30 PM 73.4 °F 41.0 °F 31% 30.09 in - North 8.1 mph - N/A   Clear
9:00 PM 69.8 °F 46.4 °F 43% 30.09 in - NE 12.7 mph - N/A   Clear
9:30 PM 69.8 °F 46.4 °F 43% 30.09 in - NE 12.7 mph - N/A   Clear
10:00 PM 68.0 °F 50.0 °F 52% 30.12 in - NE 10.4 mph - N/A   Clear
10:30 PM 66.2 °F 44.6 °F 46% 30.12 in - ENE 11.5 mph - N/A   Clear
11:00 PM 65 °F 44 °F 36% 30.12 in 6 mi ENE 12.7 mph - -  
11:00 PM 66.2 °F 44.6 °F 46% 30.09 in - ENE 12.7 mph - N/A   Clear
11:30 PM 64.4 °F 44.6 °F 49% 30.09 in - ENE 12.7 mph - N/A   Clear